[[{"header":{"parameterUnit":"m.s-1","parameterCategory":1,"la1":30.2991,"la2":30.254,"lo1":-89.0895,"lo2":-89.0444,"dy":0.0017,"dx":0.0017,"nx":28,"ny":28,"refTime":"2023-03-31T21:00:00:Z","depth":0,"parameterNumber":2,"parameterNumberName":"U-component_of_WINDS"},"data":[0,0,0,0,0,0,0,0,0,0,0,0,0,0,0,0,0,0,0,0,0,0,0,0,0,0,0,0,0,0,0,0,0,0,0,0,0,0,0,0,0,0,0,0,0,0,0,0,0,0,0,0,0,0,0,0,0,0,1.8455,1.8455,0,1.8392,1.8391,1.8391,1.8331,1.833,1.833,1.8329,1.8267,1.8266,1.8265,0,0,0,0,0,0,0,0,0,0,0,0,0,1.8529,1.8528,1.8456,1.8455,1.8454,1.8392,1.8391,1.8391,1.8331,1.833,1.8329,1.8329,1.8268,1.8266,1.8265,0,0,0,0,0,0,0,0,0,0,0,0,0,1.8485,1.8528,1.8456,1.8417,1.8413,1.8392,1.8391,1.839,1.8331,1.833,1.8329,1.8328,1.8268,1.8267,1.8265,1.8279,0,0,1.8261,1.826,0,0,0,0,0,0,0,0,1.8487,1.8482,1.8423,1.8419,1.8415,1.8368,1.8395,1.8353,1.8332,1.8362,1.8329,1.8328,1.8302,1.8298,1.8288,1.8276,1.8274,1.8261,1.826,1.8259,1.8259,0,0,0,0,0,0,0,1.8491,1.8485,1.8431,1.8423,1.8417,1.8404,1.8396,1.8387,1.8339,1.836,1.8355,1.8348,1.83,1.829,1.8287,1.8273,1.8261,1.826,1.8259,1.8258,1.8271,1.8272,0,0,0,0,0,0,1.8499,1.8488,1.8433,1.8429,1.8449,1.8404,1.8395,1.8384,1.8339,1.8331,1.8349,1.8346,1.8293,1.8288,1.8284,1.8299,1.8259,1.8258,1.8257,1.827,1.8271,1.8273,0,0,0,0,0,0,1.8501,1.8495,1.8435,1.8457,1.8448,1.8403,1.8392,1.8384,1.8374,1.8331,1.8323,1.8348,1.8292,1.8286,1.8281,1.8296,1.8257,1.8256,1.8269,1.827,1.8272,1.8327,0,0,0,0,0,0,1.8503,1.8496,1.8499,1.8457,1.8447,1.8432,1.8393,1.8383,1.8371,1.8366,1.8328,1.8321,1.8291,1.8284,1.828,1.8293,1.8255,1.8267,1.8269,1.8271,1.8324,1.8331,1.8337,0,0,0,0,0,1.8506,1.8518,1.85,1.8494,1.8451,1.8433,1.8427,1.8391,1.8373,1.8377,1.835,1.8322,1.8295,1.8284,1.8279,1.8292,1.8266,1.8269,1.8271,1.8321,1.833,1.8337,0,0,0,0,0,0,1.8564,1.8512,1.8491,1.8489,1.8466,1.8423,1.8427,1.8401,1.8383,1.8379,1.8336,1.8328,1.8329,1.831,1.8298,1.8304,1.8277,1.8279,1.8316,1.8324,1.833,1.8335,1.8254,0,0,0,0,0,1.8576,1.8564,1.852,1.8523,1.8512,1.8472,1.8463,1.8437,1.8411,1.8402,1.8374,1.8351,1.8338,1.833,1.8315,1.8321,1.8313,1.8328,1.8334,1.834,1.8342,1.8346,1.8352,1.8281,1.8281,1.8281,0,0,1.8602,1.8572,1.8567,1.8534,1.8513,1.8503,1.8464,1.8455,1.8448,1.84,1.8394,1.8373,1.8345,1.8347,1.8346,1.8331,1.836,1.8343,1.8348,1.8347,1.8349,1.8356,1.8362,1.8283,1.8283,1.8283,0,0,1.8643,1.8619,1.8619,1.8599,1.8568,1.8541,1.8541,1.8502,1.8486,1.8479,1.8444,1.8435,1.8412,1.8394,1.8382,1.8419,1.8394,1.8416,1.8449,1.8453,1.8459,1.8463,1.8478,1.8484,1.8418,1.8418,1.8418,0,1.868,1.8662,1.8623,1.8617,1.8604,1.856,1.8561,1.8544,1.8509,1.8502,1.8486,1.8457,1.8435,1.8432,1.8442,1.8433,1.8433,1.842,1.8461,1.8465,1.8469,1.8483,1.8488,1.8421,1.8421,1.8421,1.842,0,1.8709,1.8698,1.8703,1.867,1.8658,1.8655,1.8617,1.861,1.8586,1.8561,1.8556,1.8528,1.8507,1.8505,1.8481,1.8499,1.8491,1.8469,1.844,1.848,1.8492,1.8496,1.8426,1.8425,1.8424,1.8423,0,0,1.8784,1.8731,1.8733,1.8719,1.8681,1.8673,1.867,1.8648,1.8644,1.8622,1.8619,1.8601,1.8581,1.8567,1.8542,1.8545,1.8578,1.8522,1.8521,1.8534,1.8598,1.8616,1.8622,1.8561,1.8561,1.8562,1.8601,0,1.8821,1.881,1.8776,1.8777,1.8767,1.8726,1.8723,1.8701,1.8679,1.8669,1.8644,1.8633,1.8606,1.8597,1.8599,1.8574,1.8591,1.857,1.8559,1.8559,1.8568,1.8628,1.8646,1.8684,1.8605,1.8606,1.8606,0,1.8861,1.8842,1.8842,1.8806,1.8801,1.8799,1.8778,1.8768,1.8743,1.8726,1.8712,1.8684,1.868,1.8653,1.8648,1.8635,1.8628,1.8616,1.8616,1.8614,1.8585,1.8628,1.8694,1.8701,1.8613,1.8612,1.8612,0,1.8917,1.8891,1.8888,1.8877,1.8835,1.8835,1.8818,1.8791,1.8781,1.8764,1.8757,1.874,1.873,1.8718,1.8687,1.867,1.8686,1.8656,1.8673,1.8674,1.8678,1.8678,1.8745,1.8673,1.8673,1.8673,1.8673,0,1.8961,1.8963,1.8913,1.8911,1.8913,1.8874,1.8877,1.8856,1.8833,1.8828,1.8792,1.8788,1.8746,1.8738,1.8713,1.8714,1.8709,1.8697,1.8691,1.8701,1.8702,1.8696,1.8693,1.8675,1.8674,1.8674,1.8674,0,1.9024,1.899,1.8984,1.8946,1.8936,1.8939,1.8907,1.8904,1.888,1.8874,1.887,1.8833,1.8822,1.8789,1.8769,1.8753,1.8761,1.8748,1.8769,1.8765,1.8785,1.8784,1.885,1.8857,1.8781,1.8781,1.8782,0,1.9055,1.9055,1.9017,1.901,1.8994,1.8984,1.8974,1.8937,1.8928,1.8901,1.8902,1.8888,1.8874,1.8858,1.883,1.8816,1.8803,1.8827,1.8801,1.8811,1.8805,1.8805,1.8806,1.8833,1.8834,1.8835,1.8836,0,1.9113,1.9096,1.9083,1.9064,1.9053,1.9036,1.9018,1.9015,1.8974,1.8966,1.8954,1.8943,1.8924,1.8911,1.8892,1.8876,1.885,1.8845,1.8848,1.8858,1.8871,1.8865,1.8786,1.8843,1.8842,1.8842,1.8842,1.8841,1.916,1.916,1.9133,1.9119,1.9102,1.9086,1.9082,1.9058,1.9047,1.9027,1.9006,1.8997,1.8974,1.8946,1.8932,1.8925,1.8911,1.8915,1.8916,1.8918,1.8924,1.8872,1.8921,1.8921,1.8921,1.892,1.892,0,1.9217,1.9198,1.9186,1.9162,1.9152,1.9128,1.9107,1.9101,1.9092,1.9072,1.906,1.9047,1.9035,1.9006,1.8992,1.8992,1.898,1.8989,1.8989,1.8986,1.8936,1.8935,1.9,1.9,1.9,1.9,1.9,1.8999,1.9246,1.9243,1.9224,1.9214,1.9195,1.9185,1.9175,1.9161,1.9145,1.9132,1.9121,1.9103,1.908,1.9064,1.9052,1.9044,1.9041,1.9055,1.9043,1.8997,1.899,1.8982,1.8981,1.9054,1.9054,1.9093,1.9094,1.9094]},{"header":{"parameterUnit":"m.s-1","parameterCategory":1,"la1":30.2991,"la2":30.254,"lo1":-89.0895,"lo2":-89.0444,"dy":0.0017,"dx":0.0017,"nx":28,"ny":28,"refTime":"2023-03-31T21:00:00:Z","depth":0,"parameterNumber":3,"parameterNumberName":"V-component_of_WINDS"},"data":[0,0,0,0,0,0,0,0,0,0,0,0,0,0,0,0,0,0,0,0,0,0,0,0,0,0,0,0,0,0,0,0,0,0,0,0,0,0,0,0,0,0,0,0,0,0,0,0,0,0,0,0,0,0,0,0,0,0,3.1341,3.1342,0,3.1451,3.1452,3.1453,3.1473,3.1472,3.1471,3.147,3.1586,3.159,3.1594,0,0,0,0,0,0,0,0,0,0,0,0,0,3.115,3.1154,3.134,3.1342,3.1343,3.145,3.1452,3.1454,3.1473,3.1472,3.1471,3.147,3.1585,3.1589,3.1594,0,0,0,0,0,0,0,0,0,0,0,0,0,3.1244,3.1155,3.134,3.1366,3.1369,3.145,3.1452,3.1454,3.1473,3.1472,3.1471,3.1469,3.1583,3.1589,3.1595,3.1659,0,0,3.1613,3.1616,0,0,0,0,0,0,0,0,3.1239,3.1251,3.1361,3.1364,3.1368,3.1447,3.1428,3.1523,3.1474,3.1434,3.147,3.1469,3.1541,3.155,3.1574,3.1664,3.1669,3.1613,3.1617,3.162,3.1621,0,0,0,0,0,0,0,3.1232,3.1246,3.1384,3.1362,3.1367,3.1373,3.1385,3.1446,3.1494,3.1437,3.1439,3.1452,3.1543,3.1568,3.1577,3.1671,3.1613,3.1619,3.1622,3.1625,3.1822,3.1824,0,0,0,0,0,0,3.1221,3.1241,3.1381,3.1387,3.1299,3.1377,3.1391,3.1423,3.1493,3.1503,3.1453,3.1452,3.1559,3.157,3.1581,3.1663,3.162,3.1625,3.1628,3.182,3.1822,3.1824,0,0,0,0,0,0,3.1216,3.1233,3.1376,3.1315,3.1333,3.1382,3.1418,3.1426,3.1451,3.1505,3.1514,3.147,3.1558,3.1573,3.164,3.1667,3.1628,3.1633,3.1818,3.1821,3.1823,3.1825,0,0,0,0,0,0,3.1211,3.1231,3.1255,3.1315,3.1336,3.1432,3.142,3.1429,3.1461,3.1461,3.1523,3.1532,3.1558,3.1631,3.1646,3.1674,3.1638,3.1816,3.182,3.1823,3.1823,3.1828,3.1831,0,0,0,0,0,3.1204,3.1252,3.1256,3.1273,3.1367,3.1433,3.1446,3.1474,3.1463,3.1489,3.1523,3.153,3.1661,3.1638,3.1654,3.1685,3.1815,3.1819,3.1822,3.1821,3.1827,3.1831,0,0,0,0,0,0,3.1195,3.126,3.1266,3.1334,3.1378,3.1437,3.1469,3.1479,3.1527,3.1526,3.156,3.1573,3.1639,3.1669,3.1641,3.1752,3.1737,3.1745,3.1731,3.1736,3.1741,3.1733,3.1643,0,0,0,0,0,3.12,3.1247,3.1302,3.1357,3.1379,3.142,3.145,3.1468,3.1515,3.1534,3.1574,3.162,3.1672,3.1706,3.1756,3.1827,3.1842,3.1857,3.1861,3.1864,3.1871,3.1912,3.192,3.1837,3.1837,3.1837,0,0,3.1213,3.1255,3.1282,3.1356,3.1393,3.1442,3.1436,3.1488,3.1526,3.1542,3.1609,3.1639,3.1693,3.1763,3.1796,3.179,3.1897,3.1869,3.1871,3.1876,3.1917,3.1925,3.1932,3.1839,3.1839,3.1838,0,0,3.1262,3.1297,3.1348,3.1384,3.1438,3.1466,3.1478,3.1535,3.1556,3.1622,3.1637,3.1682,3.177,3.1809,3.184,3.1904,3.1913,3.1919,3.1942,3.1983,3.1989,3.1995,3.202,3.2029,3.1925,3.1926,3.1926,0,3.1271,3.1345,3.1373,3.1425,3.1458,3.1474,3.1527,3.1561,3.1629,3.1653,3.1644,3.1756,3.1794,3.1874,3.1889,3.1913,3.193,3.1914,3.1986,3.1992,3.1998,3.2023,3.2032,3.1926,3.1926,3.1926,3.1926,0,3.1355,3.1406,3.1441,3.1506,3.1543,3.1595,3.1631,3.1665,3.168,3.1708,3.1777,3.1822,3.1883,3.1903,3.1918,3.1986,3.1981,3.1979,3.1965,3.2006,3.203,3.2039,3.1927,3.1927,3.1926,3.1926,0,0,3.1402,3.1482,3.1495,3.1525,3.1587,3.1628,3.1681,3.1739,3.1769,3.1816,3.1863,3.1937,3.1936,3.1971,3.199,3.2025,3.2076,3.202,3.2021,3.203,3.2156,3.2159,3.2169,3.2082,3.2083,3.2085,3.2153,0,3.146,3.1555,3.1581,3.1662,3.1711,3.1727,3.1774,3.1818,3.1846,3.1892,3.1924,3.1977,3.197,3.1992,3.2027,3.2062,3.2102,3.2058,3.2128,3.213,3.2116,3.2181,3.2184,3.2246,3.2162,3.2163,3.2164,0,3.1541,3.1589,3.1674,3.1731,3.1752,3.1793,3.185,3.1894,3.1944,3.1962,3.2002,3.2018,3.2076,3.2057,3.2139,3.2108,3.2138,3.216,3.2163,3.2173,3.2151,3.2195,3.2266,3.2276,3.2179,3.2178,3.2176,0,3.1569,3.1655,3.1718,3.1743,3.181,3.1839,3.1868,3.1917,3.1951,3.2001,3.2024,3.208,3.2111,3.2155,3.2186,3.2169,3.2266,3.2249,3.2285,3.2284,3.2306,3.2305,3.2385,3.2322,3.2321,3.2321,3.2321,0,3.1632,3.1685,3.1732,3.1771,3.183,3.186,3.1919,3.1949,3.1992,3.2038,3.2056,3.2099,3.2137,3.2186,3.2211,3.2276,3.2289,3.2307,3.2314,3.2307,3.2305,3.2329,3.2326,3.2324,3.2323,3.2323,3.2322,0,3.1675,3.1708,3.1778,3.1836,3.1851,3.1893,3.1943,3.1982,3.201,3.2069,3.2084,3.213,3.2188,3.2223,3.2297,3.2314,3.2387,3.239,3.237,3.2373,3.2407,3.2405,3.2508,3.2524,3.2447,3.2448,3.2448,0,3.1714,3.1755,3.1817,3.1848,3.1878,3.1929,3.1964,3.1995,3.2031,3.2092,3.2124,3.2183,3.2232,3.2325,3.2366,3.2423,3.243,3.2462,3.2439,3.2431,3.2433,3.2431,3.2437,3.2467,3.2467,3.2468,3.2468,0,3.1781,3.1796,3.1845,3.19,3.1941,3.1986,3.2031,3.2056,3.2095,3.2135,3.2195,3.2233,3.2308,3.2368,3.2429,3.2461,3.2472,3.2475,3.2487,3.2481,3.2469,3.2478,3.2383,3.2473,3.2472,3.2472,3.2472,3.2472,3.1825,3.1863,3.1912,3.1967,3.2004,3.2046,3.2086,3.2119,3.2169,3.2232,3.2248,3.2311,3.2362,3.2444,3.2478,3.2529,3.2524,3.254,3.2545,3.2549,3.2551,3.2458,3.2539,3.2539,3.2539,3.2539,3.2539,0,3.1895,3.1928,3.1977,3.204,3.2083,3.2088,3.2138,3.2175,3.2229,3.2275,3.2323,3.2393,3.2451,3.2495,3.2555,3.2588,3.2595,3.2603,3.2602,3.2609,3.255,3.2535,3.2596,3.2596,3.2596,3.2596,3.2596,3.2596,3.1936,3.2001,3.2021,3.2105,3.2137,3.2199,3.2227,3.2267,3.2304,3.238,3.2428,3.2456,3.2503,3.2566,3.262,3.2632,3.2654,3.2662,3.2675,3.2619,3.2613,3.2607,3.2594,3.2666,3.2666,3.273,3.2731,3.2731]}]]